Welcome to the New NWS' Forecast!
Most changes are behind the scenes, but click here for differences you might notice.
Latest weather observations around

Duluth International Airport (KDLH)

Using International System of Units (Switch to English Units)
Date/ Time (CDT) Wind (kph) Vis. (km) Weather Sky Cond. Temp (°C) Rel. Humidity Wind Chill (°C) Heat Index (°C) Pressure Precip. (cm)
Air Dwpt 6 hour Altimeter (hPa) Sea level (hPa) 1 hr 3 hr 6 hr
Max Min
Jul 19 13:55 ESE 18 16.09 Mostly Cloudy FEW037 BKN060 BKN085 25 18     64%   25 1010.5 1010.3      
Jul 19 12:55 S 9 16.09 Partly Cloudy SCT080 24 18     67%   25 1011.2 1010.7      
Jul 19 11:55 ESE 13 16.09 Mostly Clear FEW050 24 17     66%   24 1011.5 1011      
Jul 19 10:55 ESE 13 16.09 Mostly Clear FEW120 24 17     64%   24 1011.5 1011.2      
Jul 19 09:55 SE 13 16.09 Clear CLR 22 15     64%   22 1012.2 1011.8      
Jul 19 08:55 SSE 13 16.09 Mostly Clear FEW120 22 15     66%   22 1012.5 1012      
Jul 19 07:55 ESE 9 16.09 Mostly Clear FEW120 19 16     81%     1012.9 1012.3      
Jul 19 06:55 ESE 5 16.09 Mostly Clear FEW120 16 14     90%     1012.9 1012.6      
Jul 19 05:55 Calm 16.09 Mostly Clear FEW120 14 12     89%     1013.6 1013.3      
Jul 19 04:55 Calm 16.09 Mostly Clear FEW120 16 13     86%     1013.9 1013.5      
Jul 19 03:55 Calm 16.09 Clear CLR 16 13     83%     1014.2 1013.8      
Jul 19 02:55 Calm 16.09 Clear CLR 16 13     81%     1014.9 1014.4      
Jul 19 01:55 Calm 16.09 Clear CLR 16 13     83%     1014.9 1014.4      
Jul 19 00:55 Calm 16.09 Clear CLR 17 13     80%     1015.2 1014.8      
Jul 18 23:55 SSW 5 16.09 Clear CLR 19 14     71%     1015.6 1015.1      
Jul 18 22:55 SSW 5 16.09 Clear CLR 19 14     73%     1015.6 1015.2      
Jul 18 21:55 SW 9 16.09 Clear CLR 21 14     65%     1015.6 1015.3      
Jul 18 20:55 SSW 13 16.09 Clear CLR 22 14     63%   22 1015.6 1015      
Jul 18 19:55 SSW 11 16.09 Clear CLR 23 14     57%   23 1015.9 1015.4      
Jul 18 18:55 SSW 15 16.09 Mostly Clear FEW050 25 13     48%   25 1016.3 1016      
Jul 18 17:55 SW 13 16.09 Mostly Clear FEW050 26 13     44%   26 1016.6 1016.5      
Jul 18 16:55 S 17 16.09 Partly Cloudy SCT050 26 14     47%   26 1017.3 1017.1      
Jul 18 15:55 Calm 16.09 Mostly Clear FEW050 27 14     45%   27 1017.6 1017.4      
Jul 18 14:55 SW 13 16.09 Partly Cloudy SCT047 26 14     47%   26 1018 1017.8      
Jul 18 13:55 WSW 11 16.09 Partly Cloudy SCT047 26 13     45%   26 1018 1017.9      
Jul 18 12:55 WSW 15 16.09 Partly Cloudy SCT044 26 13     47%   25 1018.6 1018.6      
Jul 18 11:55 SW 17 16.09 Mostly Cloudy BKN041 25 13     48%   25 1019.3 1019.2      
Jul 18 10:55 WSW 15 16.09 Mostly Clear FEW120 24 13     52%   24 1019.7 1019.5      
Jul 18 09:55 WSW 11 16.09 Mostly Clear FEW120 23 14     57%   23 1020 1019.9      
Jul 18 07:55 WSW 5 16.09 Mostly Clear FEW120 19 13     70%     1020.7 1020.4      
Jul 18 06:55 W 5 16.09 Clear   16 13     81%     1020.7 1020.5      
Jul 18 05:55 Calm 16.09 Clear CLR 13 11     84%     1020.3 1020.3      
Jul 18 04:55 Calm 16.09 Clear CLR 12 9     86%     1020.3 1020.4      
Jul 18 03:55 Calm 16.09 Clear CLR 12 9     83%     1020 1020      
Jul 18 02:55 SSE 5 16.09 Clear CLR 12 9     86%     1020 1020      
Jul 18 01:55 Calm 16.09 Clear CLR 14 11     81%     1020 1020      
Jul 18 00:55 Calm 16.09 Clear CLR 14 11     81%     1020 1020      
Jul 17 23:55 Calm 16.09 Clear CLR 15 11     78%     1020 1020.1      
Jul 17 22:55 Calm 16.09 Clear CLR 16 11     70%     1020 1020.1      
Jul 17 21:55 Calm 16.09 Clear CLR 17 11     65%     1020 1019.9      
Jul 17 20:55 ESE 5 16.09 Mostly Clear FEW120 18 11     63%     1019.7 1019.7      
Jul 17 19:55 ESE 11 16.09 Mostly Clear FEW120 20 11     57%     1019.7 1019.8      
Jul 17 18:55 SSE 13 16.09 Mostly Clear FEW060 22 12     53%   21 1020 1019.8      
Jul 17 17:55 SSE 15 16.09 Partly Cloudy SCT060 23 12     51%   22 1020 1020.1      
Jul 17 16:55 SE 15 16.09 Partly Cloudy SCT055 23 12     51%   22 1020.3 1020.3      
Jul 17 15:55 SSE 17 16.09 Mostly Cloudy BKN055 22 12     53%   22 1020.7 1020.7      
Jul 17 14:55 SE 11 16.09 Partly Cloudy SCT045 22 12     53%   22 1021 1020.8      
Jul 17 13:55 SSE 17 16.09 Partly Cloudy FEW042 SCT050 22 13     55%   22 1021 1021.1      
Jul 17 12:55 5 16.09 Mostly Clear FEW045 22 12     53%   22 1021.3 1021.3      
Jul 17 11:55 SE 9 16.09 Mostly Clear FEW060 19 12     61%     1022 1022      
Jul 17 10:55 ESE 8 16.09 Mostly Clear FEW060 19 12     61%     1021.7 1021.9      
Jul 17 09:55   16.09 Clear CLR 19 12     63%     1022 1022      
Jul 17 08:55 ESE 15 16.09 Clear CLR 18 12     65%     1021.7 1021.6      
Jul 17 07:55 5 16.09 Clear CLR 17 12     75%     1021.3 1021.2      
Jul 17 06:55 Calm 16.09 Clear CLR 15 12     83%     1021 1021      
Jul 17 05:55 E 9 16.09 Clear CLR 13 11     89%     1020.3 1020.4      
Jul 17 04:55 N 15 16.09 Clear CLR 13 12     90%     1019.3 1019.3      
Jul 17 03:55 NNW 13 16.09 Clear   13 11     87%     1019.3 1019.2      
Jul 17 02:55 NNW 13 16.09 Clear CLR 14 12     87%     1019 1018.9      
Jul 17 01:55 Calm 16.09 Clear CLR 14 11     81%     1018.6 1018.6      
Jul 17 00:55 NW 8 16.09 Clear CLR 15 11     78%     1018.3 1018.2      
Jul 16 23:55 NNW 11 16.09 Clear CLR 16 11     75%     1018 1018      
Jul 16 22:55 NNW 9 16.09 Mostly Clear FEW060 16 11     72%     1018 1017.6      
Jul 16 21:55 NW 9 16.09 Mostly Clear FEW060 17 11     70%     1017.3 1017      
Jul 16 20:55 NW 9 16.09 Partly Cloudy SCT060 19 11     59%     1016.6 1016.3      
Jul 16 19:55 NNW 11 16.09 Partly Cloudy SCT060 21 11     53%     1016.3 1016.1      
Jul 16 18:55 NW 21 16.09 Mostly Clear FEW060 23 10     44%   22 1016.3 1016      
Jul 16 17:55 NW 18 16.09 Partly Cloudy SCT055 23 11     46%   22 1015.9 1015.8      
Jul 16 16:55 NW 26 16.09 Partly Cloudy SCT055 24 10     41%   23 1015.6 1015.5      
Jul 16 15:55 NW 26 16.09 Partly Cloudy SCT060 24 11     43%   24 1015.2 1015.2      
Jul 16 14:55 WNW 22 16.09 Partly Cloudy SCT040 24 10     40%   24 1015.2 1014.8      
Jul 16 13:55 WNW 33 16.09 Partly Cloudy and Windy SCT035 25 9     37%   25 1014.9 1014.6      
May 13 21:55 WSW 15 16.09 Mostly Cloudy BKN120 18 6     43%     1011.5 1011.7      
May 13 09:55 W 17 16.09 Cloudy OVC100 16 -2     30%     1016.6 1017.2      
May 13 07:55 WNW 13 16.09 Mostly Clear FEW120 12 -1     41%     1016.9 1017.5      
May 12 10:55 E 9 16.09 Clear CLR 14 -6     24%     1021.7 1022.7      
Notice The following observation data may not be complete
May 12 07:55 ENE 8 16.09 Clear CLR   -4      %     1021 1022.2      
May 12 03:55 N 5 16.09 Clear CLR -1 -6     69% -3   1019.7 1021      
Jun 11 10:55   6.44 Rain and Fog/Mist OVC095 15 14     93%     1007.1   0    
Jun 11 06:55 Calm 16.09 Partly Cloudy SCT120 16 14     87%     1008.1 1007.8      
Notice The following observation data may not be complete
Jun 10 05:21   16.09 Mostly Cloudy SCT008 SCT042 BKN075   16      %     999.3   3    
Jun 08 23:55 ENE 8 16.09 Mostly Clear FEW100 14 12     87%     1011.9 1011.8      
Jun 08 03:55 Calm 16.09 Mostly Clear FEW120 13 11     87%     1012.5 1012.4      
Jun 07 21:24 ESE 11 16.09 Thunderstorms SCT050 BKN080 BKN120 19 8     48%     1014.9        
Jun 07 13:55 S 17 16.09 Mostly Clear FEW120 26 11     38%   26 1017.6 1017.6      
Jun 06 01:55 Calm 16.09 Clear CLR 7 4     80%     1020 1020.5      
Jun 05 17:55 E 21 16.09 Clear CLR 20 8     45%     1018 1018.3      
Jun 05 14:55 E 21 16.09 Mostly Clear FEW045 21 9     49%     1018.3 1018.6